Location: Arborea
(39.7744°N, 8.5819°E)
Time: 19:20:20
(UTC+00:00)

CZ-2C DEB - Pass Details

Date: 26 August 2022
Orbit: 681 x 927 km, 97.9° (Epoch: 03 October)

Event Time Altitude Azimuth Distance (km) Brightness Sun altitude
Rises 21:22:04 0° 10° (N) 3,349 ? -32.2°
Reaches altitude 10° 21:24:21 10° 10° (N) 2,448 ? -32.5°
Enters shadow 21:28:10 47° 1° (N) 1,122 ? -32.9°
